• In Kazakhstan
  • List of Countries
  • For 7 days
  • Water Temperature
  • Weather Map
  • News
  • Weather Widgets
  • user-avatar
    Login

    Hourly Weather Bugojno

    Today, 28 February, Friday

    Time Temperature Precipitation Wind Pressure Humidity
    00:00 -1°C° 0 mm 5 mps 703 mmHg 85%
    01:00 -2°C° 0 mm 6 mps 702 mmHg 86%
    02:00 -2°C° 0.4 mm 6 mps 702 mmHg 88%
    03:00 0°C° 0.4 mm 5 mps 701 mmHg 91%
    04:00 0°C° 0.4 mm 4 mps 701 mmHg 94%
    05:00 0°C° 2.3 mm 4 mps 701 mmHg 95%
    06:00 +1°C° 2.3 mm 3 mps 702 mmHg 96%
    07:00 +3°C° 2.3 mm 2 mps 702 mmHg 97%
    08:00 +2°C° 0.3 mm 3 mps 703 mmHg 90%
    09:00 +1°C° 0.3 mm 4 mps 704 mmHg 84%
    10:00 +2°C° 0.3 mm 5 mps 705 mmHg 78%
    11:00 +2°C° 0.1 mm 5 mps 706 mmHg 79%
    12:00 +2°C° 0.1 mm 5 mps 707 mmHg 79%
    13:00 +2°C° 0.1 mm 5 mps 707 mmHg 80%
    14:00 +2°C° 0.1 mm 5 mps 708 mmHg 79%
    15:00 +1°C° 0.1 mm 5 mps 709 mmHg 79%
    16:00 +1°C° 0.1 mm 4 mps 709 mmHg 78%
    17:00 +1°C° 0 mm 3 mps 710 mmHg 81%
    18:00 -1°C° 0 mm 3 mps 710 mmHg 84%
    19:00 -2°C° 0 mm 2 mps 711 mmHg 86%
    20:00 -3°C° 0 mm 2 mps 711 mmHg 86%
    21:00 -1°C° 0 mm 1 mps 712 mmHg 86%
    22:00 -1°C° 0 mm 1 mps 712 mmHg 86%
    23:00 -2°C° 0 mm 1 mps 713 mmHg 86%

    Tomorrow, 29 February, Saturday

    Time Temperature Precipitation Wind Pressure Humidity
    00:00 -2°C° 0 mm 1 mps 713 mmHg 86%
    01:00 -3°C° 0 mm 0 mps 713 mmHg 86%
    02:00 -2°C° 0 mm 1 mps 712 mmHg 86%
    03:00 -3°C° 0 mm 1 mps 712 mmHg 85%
    04:00 -3°C° 0 mm 1 mps 712 mmHg 85%
    05:00 -2°C° 0 mm 1 mps 712 mmHg 83%
    06:00 -2°C° 0 mm 1 mps 712 mmHg 81%
    07:00 -2°C° 0 mm 1 mps 712 mmHg 78%
    08:00 0°C° 0 mm 1 mps 712 mmHg 76%
    09:00 +2°C° 0 mm 1 mps 712 mmHg 73%
    10:00 +4°C° 0 mm 1 mps 712 mmHg 71%
    11:00 +4°C° 0 mm 2 mps 711 mmHg 72%
    12:00 +5°C° 0 mm 2 mps 711 mmHg 73%
    13:00 +5°C° 0 mm 2 mps 711 mmHg 75%
    14:00 +5°C° 0 mm 2 mps 710 mmHg 76%
    15:00 +5°C° 0 mm 2 mps 709 mmHg 77%
    16:00 +5°C° 0 mm 2 mps 709 mmHg 78%
    17:00 +4°C° 0 mm 2 mps 709 mmHg 79%
    18:00 +1°C° 0 mm 3 mps 709 mmHg 80%
    19:00 0°C° 0 mm 3 mps 708 mmHg 80%
    20:00 0°C° 0 mm 3 mps 708 mmHg 77%
    21:00 0°C° 0 mm 3 mps 708 mmHg 75%
    22:00 0°C° 0 mm 3 mps 708 mmHg 72%
    23:00 0°C° 0 mm 3 mps 708 mmHg 73%

    Day after tomorrow, 1 March, Sunday

    Time Temperature Precipitation Wind Pressure Humidity
    00:00 0°C° 0 mm 3 mps 708 mmHg 75%
    01:00 0°C° 0 mm 3 mps 707 mmHg 77%
    02:00 0°C° 0 mm 3 mps 707 mmHg 78%
    03:00 +1°C° 0 mm 3 mps 707 mmHg 79%
    04:00 +1°C° 0 mm 3 mps 707 mmHg 81%
    05:00 +1°C° 0 mm 3 mps 707 mmHg 83%
    06:00 +2°C° 0 mm 3 mps 707 mmHg 85%
    07:00 +2°C° 0 mm 3 mps 707 mmHg 86%
    08:00 +3°C° 0 mm 3 mps 707 mmHg 87%
    09:00 +4°C° 0 mm 3 mps 707 mmHg 89%
    10:00 +5°C° 0 mm 3 mps 707 mmHg 90%
    11:00 +5°C° 0 mm 4 mps 707 mmHg 90%
    12:00 +6°C° 0 mm 4 mps 706 mmHg 91%
    13:00 +6°C° 0 mm 4 mps 706 mmHg 92%
    14:00 +6°C° 0.2 mm 4 mps 705 mmHg 93%
    15:00 +5°C° 0.2 mm 4 mps 705 mmHg 95%
    16:00 +5°C° 0.2 mm 3 mps 704 mmHg 96%
    17:00 +5°C° 0.6 mm 3 mps 704 mmHg 97%
    18:00 +5°C° 0.6 mm 3 mps 704 mmHg 97%
    19:00 +5°C° 0.6 mm 3 mps 704 mmHg 97%
    20:00 +5°C° 0.6 mm 3 mps 704 mmHg 97%
    21:00 +7°C° 0.6 mm 3 mps 703 mmHg 97%
    22:00 +7°C° 0.6 mm 3 mps 703 mmHg 97%
    23:00 +7°C° 1.1 mm 3 mps 702 mmHg 97%

    2 March, Monday

    Time Temperature Precipitation Wind Pressure Humidity
    00:00 +6°C° 1.1 mm 4 mps 702 mmHg 97%
    01:00 +6°C° 1.1 mm 4 mps 701 mmHg 96%
    02:00 +6°C° 1.9 mm 4 mps 701 mmHg 97%
    03:00 +7°C° 1.9 mm 3 mps 701 mmHg 97%
    04:00 +7°C° 1.9 mm 3 mps 700 mmHg 97%
    05:00 +7°C° 1 mm 3 mps 700 mmHg 97%
    06:00 +7°C° 1 mm 3 mps 700 mmHg 97%
    07:00 +7°C° 1 mm 3 mps 700 mmHg 97%
    08:00 +7°C° 1.4 mm 3 mps 701 mmHg 96%
    09:00 +5°C° 1.4 mm 3 mps 701 mmHg 96%
    10:00 +6°C° 1.4 mm 2 mps 701 mmHg 96%
    11:00 +7°C° 0.7 mm 3 mps 702 mmHg 91%
    12:00 +7°C° 0.7 mm 4 mps 702 mmHg 87%
    13:00 +8°C° 0.7 mm 5 mps 702 mmHg 82%
    14:00 +7°C° 0 mm 4 mps 702 mmHg 82%
    15:00 +7°C° 0 mm 4 mps 702 mmHg 83%
    16:00 +7°C° 0 mm 4 mps 702 mmHg 83%
    17:00 +7°C° 0 mm 3 mps 702 mmHg 85%
    18:00 +5°C° 0 mm 3 mps 702 mmHg 87%
    19:00 +5°C° 0 mm 2 mps 703 mmHg 89%
    20:00 +4°C° 0 mm 3 mps 702 mmHg 90%
    21:00 +4°C° 0 mm 4 mps 702 mmHg 90%
    22:00 +5°C° 0 mm 4 mps 702 mmHg 91%
    23:00 +5°C° 0 mm 5 mps 701 mmHg 90%

    3 March, Tuesday

    Time Temperature Precipitation Wind Pressure Humidity
    00:00 +4°C° 0 mm 6 mps 700 mmHg 88%
    01:00 +5°C° 0 mm 7 mps 700 mmHg 87%
    02:00 +5°C° 0.9 mm 6 mps 699 mmHg 90%
    03:00 +5°C° 0.9 mm 5 mps 698 mmHg 93%
    04:00 +5°C° 0.9 mm 4 mps 698 mmHg 95%
    05:00 +6°C° 3.6 mm 4 mps 697 mmHg 96%
    06:00 +7°C° 3.6 mm 3 mps 697 mmHg 96%
    07:00 +7°C° 3.6 mm 3 mps 697 mmHg 96%
    08:00 +8°C° 0.3 mm 3 mps 698 mmHg 94%
    09:00 +9°C° 0.3 mm 3 mps 698 mmHg 91%
    10:00 +10°C° 0.3 mm 3 mps 699 mmHg 88%
    11:00 +11°C° 0.1 mm 3 mps 699 mmHg 86%
    12:00 +12°C° 0.1 mm 2 mps 699 mmHg 83%
    13:00 +13°C° 0.1 mm 2 mps 699 mmHg 80%
    14:00 +13°C° 0.6 mm 2 mps 699 mmHg 82%
    15:00 +12°C° 0.6 mm 1 mps 699 mmHg 85%
    16:00 +11°C° 0.6 mm 1 mps 698 mmHg 87%
    17:00 +10°C° 2.7 mm 1 mps 698 mmHg 91%
    18:00 +10°C° 2.7 mm 1 mps 698 mmHg 94%
    19:00 +9°C° 2.7 mm 1 mps 698 mmHg 98%
    20:00 +7°C° 3.7 mm 2 mps 698 mmHg 98%
    21:00 +6°C° 3.7 mm 2 mps 698 mmHg 98%
    22:00 +5°C° 3.7 mm 2 mps 698 mmHg 98%
    23:00 +4°C° 3.6 mm 2 mps 697 mmHg 98%

    4 March, Wednesday

    Time Temperature Precipitation Wind Pressure Humidity
    00:00 +2°C° 3.6 mm 3 mps 697 mmHg 99%
    01:00 +2°C° 3.6 mm 3 mps 697 mmHg 99%
    02:00 +2°C° 2.9 mm 3 mps 697 mmHg 98%
    03:00 +1°C° 2.9 mm 3 mps 697 mmHg 98%
    04:00 +1°C° 2.9 mm 3 mps 697 mmHg 98%
    05:00 +1°C° 1.1 mm 3 mps 698 mmHg 98%
    06:00 +1°C° 1.1 mm 3 mps 698 mmHg 98%
    07:00 +1°C° 1.1 mm 3 mps 699 mmHg 98%
    08:00 +1°C° 0.6 mm 3 mps 699 mmHg 98%
    09:00 +1°C° 0.6 mm 3 mps 700 mmHg 98%
    10:00 +1°C° 0.6 mm 3 mps 701 mmHg 98%
    11:00 +1°C° 0.4 mm 3 mps 702 mmHg 97%
    12:00 +1°C° 0.4 mm 3 mps 702 mmHg 97%
    13:00 +1°C° 0.4 mm 3 mps 703 mmHg 96%
    14:00 +1°C° 0.1 mm 3 mps 703 mmHg 95%
    15:00 +1°C° 0.1 mm 3 mps 703 mmHg 94%
    16:00 +1°C° 0.1 mm 3 mps 704 mmHg 93%
    17:00 0°C° 0.2 mm 3 mps 704 mmHg 94%
    18:00 +1°C° 0.2 mm 2 mps 705 mmHg 95%
    19:00 -1°C° 0.2 mm 2 mps 705 mmHg 96%
    20:00 -1°C° 0.1 mm 2 mps 705 mmHg 96%
    21:00 -2°C° 0.1 mm 2 mps 705 mmHg 97%
    22:00 0°C° 0.1 mm 1 mps 706 mmHg 97%
    23:00 -1°C° 0 mm 1 mps 706 mmHg 96%
    Show more